Regional Weather Roundup
Issued by NWS Goodland, KS

Home | Current Version | Previous Version | Text Only | Print | Product List | Glossary On
Versions: 1 2 3 4 5 6 7 8 9 10 11 12 13 14 15 16 17 18 19 20 21 22 23 24 25 26 27 28 29 30 31 32 33 34 35 36 37 38 39 40 41 42 43 44 45 46 47 48 49 50
000
ASUS43 KGLD 280308
RWRGLD

GOODLAND FORECAST AREA HOURLY WEATHER ROUNDUP
NATIONAL WEATHER SERVICE GOODLAND KS
900 PM MDT MON JUL 27 2015

...OFFICIAL OBSERVATIONS...

CITY           SKY/WX    TMP DP  RH WIND       PRES   REMARKS
GOODLAND KS    CLEAR     82  68  62 S16       29.78R
HILL CITY KS   CLEAR     86  69  56 SE13      29.76R
IMPERIAL NEB   CLEAR     84  69  60 SE13      29.74R
MCCOOK NEB     CLEAR     86  68  54 S15G23    29.73R
AKRON CO         N/A    N/A N/A N/A MISG      29.81R
BURLINGTON CO  PTCLDY    77  60  55 S13       29.82R
LIMON CO       PTCLDY    77  51  40 S10       29.91R
$$

...UNOFFICIAL OBSERVATIONS...

CITY           SKY/WX    TMP DP  RH WIND       PRES   REMARKS
COLBY KS       CLEAR     82  73  74 SE16      29.79R
LENORA KS        N/A     82  32  16 MISG        N/A
NORTON KS      CLEAR     81  63  54 SE9G17    29.76
SHARON SPRINGS   N/A     82  69  63 N13G20      N/A
TRIBUNE KS       N/A    N/A N/A N/A MISG        N/A
KIT CARSON CO    N/A     81  58  44 MISG        N/A
YUMA CO          N/A     81  68  64 S5          N/A
$$



USA.gov is the U.S. government's official web portal to all federal, state and local government web resources and services.